Satellite: AO-51
Catalog number: 28375
Epoch time:      05181.18700396
Element set:     286
Inclination:      098.2107 deg
RA of node:       243.2314 deg
Eccentricity:    0.0083944
Arg of perigee:   191.1727 deg
Mean anomaly:     168.7600 deg
Mean motion:   14.40464735 rev/day
Decay rate:        2.1e-07 rev/day^2
Epoch rev:            5248
Checksum:              297

/EX
SB KEPS @ AMSAT  $ORB05181.W
Orbital Elements  05181.WEATHER

HR AMSAT ORBITAL ELEMENTS FOR WEATHER SATELLITES
FROM WA5QGD FORT WORTH,TX June 30, 2005
Send SUBSCRIBE KEPS/UNSUBSCRIBE KEPS to majordomo@amsat.org only
BID: ORB05181.W
TO ALL RADIO AMATEURS BT

Satellite: NOAA-10
Catalog number: 16969
Epoch time:      05181.50749534
Element set:     782
Inclination:      098.7635 deg
RA of node:       187.3025 deg
Eccentricity:    0.0013416
Arg of perigee:   094.0100 deg
Mean anomaly:     266.2637 deg
Mean motion:   14.27259671 rev/day
Decay rate:       -7.4e-07 rev/day^2
Epoch rev:           97699
Checksum:              333

Satellite: NOAA-11
Catalog number: 19531
Epoch time:      05181.51969150
Element set:     638
Inclination:      098.8446 deg
RA of node:       268.4358 deg
Eccentricity:    0.0010766
Arg of perigee:   269.8938 deg
Mean anomaly:     090.1058 deg
Mean motion:   14.14756955 rev/day
Decay rate:      -1.64e-06 rev/day^2
Epoch rev:           86481
Checksum:              348

Satellite: NOAA-12
Catalog number: 21263
Epoch time:      05181.30486173
Element set:     130
Inclination:      098.7005 deg
RA of node:       171.6159 deg
Eccentricity:    0.0013274
Arg of perigee:   035.2456 deg
Mean anomaly:     324.9605 deg
Mean motion:   14.25464006 rev/day
Decay rate:      -1.69e-06 rev/day^2
Epoch rev:           73411
Checksum:              273

Satellite: MET-3/5
Catalog number: 21655
Epoch time:      05181.09302263
Element set:     853
Inclination:      082.5560 deg
RA of node:       149.5518 deg
Eccentricity:    0.0012551
Arg of perigee:   196.6420 deg
Mean anomaly:     163.4295 deg
Mean motion:   13.17002876 rev/day
Decay rate:        5.1e-07 rev/day^2
Epoch rev:           66701
Checksum:              286

Satellite: MET-2/21
Catalog number: 22782
Epoch time:      05181.14271731
Element set:     239
Inclination:      082.5481 deg
RA of node:       250.7009 deg
Eccentricity:    0.0024011
Arg of perigee:   088.0136 deg
Mean anomaly:     272.3773 deg
Mean motion:   13.83591168 rev/day
Decay rate:       1.18e-06 rev/day^2
Epoch rev:           59736
Checksum:              292

Satellite: OKEAN-4
Catalog number: 23317
Epoch time:      05181.17793515
Element set:     665
Inclination:      082.5390 deg
RA of node:       245.2677 deg
Eccentricity:    0.0024142
Arg of perigee:   093.3607 deg
Mean anomaly:     267.0369 deg
Mean motion:   14.82175843 rev/day
Decay rate:       2.54e-06 rev/day^2
Epoch rev:           57783
Checksum:              318

Satellite: NOAA-14
Catalog number: 23455
Epoch time:      05181.52511602
Element set:     651
Inclination:      099.0874 deg
RA of node:       230.0733 deg
Eccentricity:    0.0008770
Arg of perigee:   327.0296 deg
Mean anomaly:     033.0313 deg
Mean motion:   14.13577479 rev/day
Decay rate:       2.28e-06 rev/day^2
Epoch rev:           54138
Checksum:              283

Satellite: SICH-1
Catalog number: 23657
Epoch time:      05181.74607457
Element set:     470
Inclination:      082.5294 deg
RA of node:       025.5943 deg
Eccentricity:    0.0025883
Arg of perigee:   078.5683 deg
Mean anomaly:     281.8411 deg
Mean motion:   14.81186037 rev/day
Decay rate:       1.33e-06 rev/day^2
Epoch rev:           52996
Checksum:              323

Satellite: NOAA-15
Catalog number: 25338
Epoch time:      05181.27502285
Element set:      90
Inclination:      098.5111 deg
RA of node:       189.2107 deg
Eccentricity:    0.0010094
Arg of perigee:   326.8509 deg
Mean anomaly:     033.2044 deg
Mean motion:   14.24521132 rev/day
Decay rate:        7.5e-07 rev/day^2
Epoch rev:           37061
Checksum:              263

Satellite: RESURS
Catalog number: 25394
Epoch time:      05181.42083517
Element set:     123
Inclination:      098.5385 deg
RA of node:       250.2566 deg
Eccentricity:    0.0002440
Arg of perigee:   112.2993 deg
Mean anomaly:     247.8444 deg
Mean motion:   14.24070739 rev/day
Decay rate:        6.2e-07 rev/day^2
Epoch rev:           36233
Checksum:              280

Satellite: FENGYUN1
Catalog number: 25730
Epoch time:      05181.53041166
Element set:     451
Inclination:      098.6051 deg
RA of node:       182.7814 deg
Eccentricity:    0.0015367
Arg of perigee:   065.0176 deg
Mean anomaly:     295.2572 deg
Mean motion:   14.11795045 rev/day
Decay rate:      -2.46e-06 rev/day^2
Epoch rev:           31639
Checksum:              289

Satellite: OKEAN-0
Catalog number: 25860
Epoch time:      05180.73115479
Element set:     472
Inclination:      097.7547 deg
RA of node:       206.0720 deg
Eccentricity:    0.0001646
Arg of perigee:   113.6343 deg
Mean anomaly:     246.5038 deg
Mean motion:   14.73262632 rev/day
Decay rate:        9.6e-07 rev/day^2
Epoch rev:           31985
Checksum:              295

Satellite: NOAA-16
Catalog number: 26536
Epoch time:      05179.48369142
Element set:     406
Inclination:      099.0161 deg
RA of node:       137.9938 deg
Eccentricity:    0.0011057
Arg of perigee:   040.7323 deg
Mean anomaly:     319.4663 deg
Mean motion:   14.12250768 rev/day
Decay rate:       -5.1e-07 rev/day^2
Epoch rev:           24565
Checksum:              305

